Time,TemperatureF,DewpointF,PressureIn,WindDirection,WindDirectionDegrees,WindSpeedMPH,WindSpeedGustMPH,Humidity,HourlyPrecipIn,Conditions,Clouds,dailyrainin,SoftwareType,DateUTC
2017-06-26 00:04:00,57.7,53.5,30.06,NW,311,0.0,0.0,86,0.00,,,0.00,Wunderground v.1.15,2017-06-26 04:04:00,
2017-06-26 00:09:00,57.5,53.3,30.06,NW,311,0.0,0.0,86,0.00,,,0.00,Wunderground v.1.15,2017-06-26 04:09:00,
2017-06-26 00:15:00,57.2,53.4,30.06,NW,311,0.0,0.0,87,0.00,,,0.00,Wunderground v.1.15,2017-06-26 04:15:00,
2017-06-26 00:21:00,57.0,53.2,30.06,NW,311,0.0,1.0,87,0.00,,,0.00,Wunderground v.1.15,2017-06-26 04:21:00,
2017-06-26 00:26:00,57.0,53.5,30.06,NW,311,0.0,1.0,88,0.00,,,0.00,Wunderground v.1.15,2017-06-26 04:26:00,
2017-06-26 00:32:00,57.0,53.5,30.06,NW,311,0.0,0.0,88,0.00,,,0.00,Wunderground v.1.15,2017-06-26 04:32:00,
2017-06-26 00:37:00,57.0,53.5,30.07,NW,311,0.0,0.0,88,0.00,,,0.00,Wunderground v.1.15,2017-06-26 04:37:00,
2017-06-26 00:43:00,57.0,53.5,30.06,NW,311,0.0,0.0,88,0.00,,,0.00,Wunderground v.1.15,2017-06-26 04:43:00,
2017-06-26 00:49:00,56.8,53.3,30.06,NW,311,0.0,0.0,88,0.00,,,0.00,Wunderground v.1.15,2017-06-26 04:49:00,
2017-06-26 00:54:00,56.7,53.2,30.06,NW,311,0.0,0.0,88,0.00,,,0.00,Wunderground v.1.15,2017-06-26 04:54:00,
2017-06-26 01:00:00,56.6,53.4,30.06,NW,311,0.0,0.0,89,0.00,,,0.00,Wunderground v.1.15,2017-06-26 05:00:00,
2017-06-26 01:06:00,56.4,53.2,30.06,NW,311,0.0,0.0,89,0.00,,,0.00,Wunderground v.1.15,2017-06-26 05:06:00,
2017-06-26 01:12:00,56.2,53.0,30.06,NW,311,0.0,0.0,89,0.00,,,0.00,Wunderground v.1.15,2017-06-26 05:12:00,
2017-06-26 01:17:00,56.0,52.8,30.06,NW,311,0.0,0.0,89,0.00,,,0.00,Wunderground v.1.15,2017-06-26 05:17:00,
2017-06-26 01:23:00,55.8,52.6,30.06,NW,311,0.0,0.0,89,0.00,,,0.00,Wunderground v.1.15,2017-06-26 05:23:00,
2017-06-26 01:29:00,55.6,52.7,30.06,NW,311,0.0,0.0,90,0.00,,,0.00,Wunderground v.1.15,2017-06-26 05:29:00,
2017-06-26 01:34:00,55.4,52.5,30.06,NW,311,0.0,0.0,90,0.00,,,0.00,Wunderground v.1.15,2017-06-26 05:34:00,
2017-06-26 01:40:00,55.2,52.6,30.06,NW,311,0.0,0.0,91,0.00,,,0.00,Wunderground v.1.15,2017-06-26 05:40:00,
2017-06-26 01:45:00,55.0,52.4,30.06,NW,311,0.0,0.0,91,0.00,,,0.00,Wunderground v.1.15,2017-06-26 05:45:00,
2017-06-26 01:51:00,54.9,52.6,30.06,NW,311,0.0,0.0,92,0.00,,,0.00,Wunderground v.1.15,2017-06-26 05:51:00,
2017-06-26 01:57:00,54.8,52.5,30.06,NW,311,0.0,0.0,92,0.00,,,0.00,Wunderground v.1.15,2017-06-26 05:57:00,
2017-06-26 02:02:00,54.6,52.3,30.06,NW,311,0.0,0.0,92,0.00,,,0.00,Wunderground v.1.15,2017-06-26 06:02:00,
2017-06-26 02:08:00,54.4,52.1,30.06,NW,311,0.0,0.0,92,0.00,,,0.00,Wunderground v.1.15,2017-06-26 06:08:00,
2017-06-26 02:14:00,54.2,52.2,30.06,NW,311,0.0,0.0,93,0.00,,,0.00,Wunderground v.1.15,2017-06-26 06:14:00,
2017-06-26 02:19:00,54.1,52.1,30.06,NW,311,0.0,0.0,93,0.00,,,0.00,Wunderground v.1.15,2017-06-26 06:19:00,
2017-06-26 02:25:00,53.9,52.2,30.06,NW,311,0.0,0.0,94,0.00,,,0.00,Wunderground v.1.15,2017-06-26 06:25:00,
2017-06-26 02:30:00,53.9,52.2,30.06,NW,311,0.0,0.0,94,0.00,,,0.00,Wunderground v.1.15,2017-06-26 06:30:00,
2017-06-26 02:36:00,53.7,52.0,30.06,NW,311,0.0,0.0,94,0.00,,,0.00,Wunderground v.1.15,2017-06-26 06:36:00,
2017-06-26 02:42:00,53.6,51.9,30.06,NW,311,0.0,0.0,94,0.00,,,0.00,Wunderground v.1.15,2017-06-26 06:42:00,
2017-06-26 02:47:00,53.5,51.8,30.06,NW,311,0.0,0.0,94,0.00,,,0.00,Wunderground v.1.15,2017-06-26 06:47:00,
2017-06-26 02:53:00,53.5,52.1,30.06,NW,311,0.0,0.0,95,0.00,,,0.00,Wunderground v.1.15,2017-06-26 06:53:00,
2017-06-26 02:59:00,53.3,51.9,30.05,NW,311,0.0,0.0,95,0.00,,,0.00,Wunderground v.1.15,2017-06-26 06:59:00,
2017-06-26 03:04:00,53.2,51.8,30.06,NW,311,0.0,0.0,95,0.00,,,0.00,Wunderground v.1.15,2017-06-26 07:04:00,
2017-06-26 03:10:00,53.0,51.6,30.06,NW,311,0.0,0.0,95,0.00,,,0.00,Wunderground v.1.15,2017-06-26 07:10:00,
2017-06-26 03:15:00,53.0,51.6,30.06,NW,311,0.0,0.0,95,0.00,,,0.00,Wunderground v.1.15,2017-06-26 07:15:00,
2017-06-26 03:21:00,52.8,51.4,30.06,NW,311,0.0,0.0,95,0.00,,,0.00,Wunderground v.1.15,2017-06-26 07:21:00,
2017-06-26 03:27:00,52.7,51.6,30.06,NW,311,0.0,0.0,96,0.00,,,0.00,Wunderground v.1.15,2017-06-26 07:27:00,
2017-06-26 03:32:00,52.6,51.5,30.06,NW,311,0.0,0.0,96,0.00,,,0.00,Wunderground v.1.15,2017-06-26 07:32:00,
2017-06-26 03:38:00,52.6,51.5,30.06,NW,311,0.0,1.0,96,0.00,,,0.00,Wunderground v.1.15,2017-06-26 07:38:00,
2017-06-26 03:43:00,52.7,51.6,30.06,NW,311,0.0,0.0,96,0.00,,,0.00,Wunderground v.1.15,2017-06-26 07:43:00,
2017-06-26 03:49:00,52.6,51.5,30.05,NW,311,0.0,0.0,96,0.00,,,0.00,Wunderground v.1.15,2017-06-26 07:49:00,
2017-06-26 03:54:00,52.4,51.3,30.05,NW,311,0.0,0.0,96,0.00,,,0.00,Wunderground v.1.15,2017-06-26 07:54:00,
2017-06-26 04:00:00,52.3,51.2,30.05,NW,311,0.0,0.0,96,0.00,,,0.00,Wunderground v.1.15,2017-06-26 08:00:00,
2017-06-26 04:06:00,52.1,51.0,30.06,NW,311,0.0,0.0,96,0.00,,,0.00,Wunderground v.1.15,2017-06-26 08:06:00,
2017-06-26 04:10:00,52.0,50.9,30.06,NW,311,0.0,0.0,96,0.00,,,0.00,Wunderground v.1.15,2017-06-26 08:10:00,
2017-06-26 04:16:00,51.8,50.7,30.06,NW,311,0.0,0.0,96,0.00,,,0.00,Wunderground v.1.15,2017-06-26 08:16:00,
2017-06-26 04:21:00,51.7,50.9,30.06,NW,311,0.0,0.0,97,0.00,,,0.00,Wunderground v.1.15,2017-06-26 08:21:00,
2017-06-26 04:27:00,51.7,50.9,30.06,NW,311,0.0,0.0,97,0.00,,,0.00,Wunderground v.1.15,2017-06-26 08:27:00,
2017-06-26 04:33:00,51.6,50.8,30.06,NW,311,0.0,0.0,97,0.00,,,0.00,Wunderground v.1.15,2017-06-26 08:33:00,
2017-06-26 04:38:00,51.5,50.7,30.06,NW,311,0.0,0.0,97,0.00,,,0.00,Wunderground v.1.15,2017-06-26 08:38:00,
2017-06-26 04:44:00,51.4,50.6,30.06,NW,311,0.0,0.0,97,0.00,,,0.00,Wunderground v.1.15,2017-06-26 08:44:00,
2017-06-26 04:49:00,51.3,50.5,30.06,NW,311,0.0,0.0,97,0.00,,,0.00,Wunderground v.1.15,2017-06-26 08:49:00,
2017-06-26 04:55:00,51.2,50.4,30.06,NW,311,0.0,0.0,97,0.00,,,0.00,Wunderground v.1.15,2017-06-26 08:55:00,
2017-06-26 05:01:00,51.0,50.2,30.06,NW,311,0.0,0.0,97,0.00,,,0.00,Wunderground v.1.15,2017-06-26 09:01:00,
2017-06-26 05:06:00,50.9,50.1,30.06,NW,311,0.0,0.0,97,0.00,,,0.00,Wunderground v.1.15,2017-06-26 09:06:00,
2017-06-26 05:12:00,50.6,49.8,30.07,NW,311,0.0,0.0,97,0.00,,,0.00,Wunderground v.1.15,2017-06-26 09:12:00,
2017-06-26 05:17:00,50.4,49.6,30.07,NW,311,0.0,0.0,97,0.00,,,0.00,Wunderground v.1.15,2017-06-26 09:17:00,
2017-06-26 05:23:00,50.3,49.5,30.07,NW,311,0.0,0.0,97,0.00,,,0.00,Wunderground v.1.15,2017-06-26 09:23:00,
2017-06-26 05:29:00,50.1,49.3,30.07,NW,311,0.0,0.0,97,0.00,,,0.00,Wunderground v.1.15,2017-06-26 09:29:00,
2017-06-26 05:34:00,50.0,49.2,30.07,NW,311,0.0,0.0,97,0.00,,,0.00,Wunderground v.1.15,2017-06-26 09:34:00,
2017-06-26 05:40:00,49.9,49.1,30.07,NW,311,0.0,0.0,97,0.00,,,0.00,Wunderground v.1.15,2017-06-26 09:40:00,
2017-06-26 05:46:00,49.8,49.0,30.07,NW,311,0.0,0.0,97,0.00,,,0.00,Wunderground v.1.15,2017-06-26 09:46:00,
2017-06-26 05:51:00,49.9,49.4,30.08,NW,311,0.0,0.0,98,0.00,,,0.00,Wunderground v.1.15,2017-06-26 09:51:00,
2017-06-26 05:58:00,49.9,49.4,30.08,NW,311,0.0,0.0,98,0.00,,,0.00,Wunderground v.1.15,2017-06-26 09:58:00,
2017-06-26 06:04:00,50.1,49.6,30.08,NW,311,0.0,0.0,98,0.00,,,0.00,Wunderground v.1.15,2017-06-26 10:04:00,
2017-06-26 06:09:00,50.1,49.6,30.08,NW,311,0.0,0.0,98,0.00,,,0.00,Wunderground v.1.15,2017-06-26 10:09:00,
2017-06-26 06:15:00,49.9,49.4,30.08,NW,311,0.0,0.0,98,0.00,,,0.00,Wunderground v.1.15,2017-06-26 10:15:00,
2017-06-26 06:20:00,49.9,49.4,30.08,NW,311,0.0,0.0,98,0.00,,,0.00,Wunderground v.1.15,2017-06-26 10:20:00,
2017-06-26 06:26:00,49.8,49.3,30.08,NW,311,0.0,0.0,98,0.00,,,0.00,Wunderground v.1.15,2017-06-26 10:26:00,
2017-06-26 06:33:00,49.7,49.2,30.08,NW,311,0.0,0.0,98,0.00,,,0.00,Wunderground v.1.15,2017-06-26 10:33:00,
2017-06-26 06:38:00,49.6,49.1,30.08,NW,311,0.0,0.0,98,0.00,,,0.00,Wunderground v.1.15,2017-06-26 10:38:00,
2017-06-26 06:44:00,49.7,49.2,30.08,NW,311,0.0,0.0,98,0.00,,,0.00,Wunderground v.1.15,2017-06-26 10:44:00,
2017-06-26 06:50:00,49.8,49.3,30.08,NW,311,0.0,0.0,98,0.00,,,0.00,Wunderground v.1.15,2017-06-26 10:50:00,
2017-06-26 06:56:00,49.8,49.3,30.08,NW,311,0.0,0.0,98,0.00,,,0.00,Wunderground v.1.15,2017-06-26 10:56:00,
2017-06-26 07:02:00,49.8,49.3,30.08,NW,311,0.0,0.0,98,0.00,,,0.00,Wunderground v.1.15,2017-06-26 11:02:00,
2017-06-26 07:07:00,49.9,49.4,30.08,NW,311,0.0,0.0,98,0.00,,,0.00,Wunderground v.1.15,2017-06-26 11:07:00,
2017-06-26 07:13:00,49.9,49.4,30.09,NW,311,0.0,0.0,98,0.00,,,0.00,Wunderground v.1.15,2017-06-26 11:13:00,
2017-06-26 07:18:00,50.2,49.9,30.09,NW,311,0.0,0.0,99,0.00,,,0.00,Wunderground v.1.15,2017-06-26 11:18:00,
2017-06-26 07:24:00,50.5,50.2,30.09,NW,311,0.0,0.0,99,0.00,,,0.00,Wunderground v.1.15,2017-06-26 11:24:00,
2017-06-26 07:30:00,51.1,50.8,30.09,NW,311,0.0,0.0,99,0.00,,,0.00,Wunderground v.1.15,2017-06-26 11:30:00,
2017-06-26 07:35:00,51.5,51.2,30.09,NW,311,0.0,0.0,99,0.00,,,0.00,Wunderground v.1.15,2017-06-26 11:35:00,
2017-06-26 07:41:00,51.9,51.6,30.09,NW,311,0.0,1.0,99,0.00,,,0.00,Wunderground v.1.15,2017-06-26 11:41:00,
2017-06-26 07:47:00,52.2,51.9,30.09,NW,311,0.0,1.0,99,0.00,,,0.00,Wunderground v.1.15,2017-06-26 11:47:00,
2017-06-26 07:52:00,52.7,52.4,30.09,NW,311,0.0,2.0,99,0.00,,,0.00,Wunderground v.1.15,2017-06-26 11:52:00,
2017-06-26 07:58:00,53.4,53.1,30.09,NW,311,0.0,2.0,99,0.00,,,0.00,Wunderground v.1.15,2017-06-26 11:58:00,
2017-06-26 08:03:00,54.1,53.5,30.09,NW,311,0.0,2.0,98,0.00,,,0.00,Wunderground v.1.15,2017-06-26 12:03:00,
2017-06-26 08:09:00,55.0,54.2,30.09,NW,311,0.0,2.0,97,0.00,,,0.00,Wunderground v.1.15,2017-06-26 12:09:00,
2017-06-26 08:15:00,55.7,53.7,30.09,NW,311,0.0,1.0,93,0.00,,,0.00,Wunderground v.1.15,2017-06-26 12:15:00,
2017-06-26 08:20:00,56.3,53.4,30.09,NW,311,1.0,1.0,90,0.00,,,0.00,Wunderground v.1.15,2017-06-26 12:20:00,
2017-06-26 08:26:00,57.2,54.0,30.09,NW,311,1.0,3.0,89,0.00,,,0.00,Wunderground v.1.15,2017-06-26 12:26:00,
2017-06-26 08:31:00,57.5,53.3,30.09,NW,311,2.0,2.0,86,0.00,,,0.00,Wunderground v.1.15,2017-06-26 12:31:00,
2017-06-26 08:37:00,58.0,53.5,30.09,NW,311,1.0,2.0,85,0.00,,,0.00,Wunderground v.1.15,2017-06-26 12:37:00,
2017-06-26 08:42:00,58.1,53.6,30.08,NW,311,1.0,1.0,85,0.00,,,0.00,Wunderground v.1.15,2017-06-26 12:42:00,
2017-06-26 08:48:00,58.8,54.0,30.08,NW,311,1.0,2.0,84,0.00,,,0.00,Wunderground v.1.15,2017-06-26 12:48:00,
2017-06-26 08:54:00,59.7,54.5,30.08,NW,311,1.0,2.0,83,0.00,,,0.00,Wunderground v.1.15,2017-06-26 12:54:00,
2017-06-26 08:59:00,60.2,55.0,30.08,NW,311,1.0,2.0,83,0.00,,,0.00,Wunderground v.1.15,2017-06-26 12:59:00,
2017-06-26 09:05:00,60.9,55.0,30.08,NW,311,0.0,1.0,81,0.00,,,0.00,Wunderground v.1.15,2017-06-26 13:05:00,
2017-06-26 09:10:00,61.8,55.2,30.08,NW,311,1.0,1.0,79,0.00,,,0.00,Wunderground v.1.15,2017-06-26 13:10:00,
2017-06-26 09:16:00,62.5,56.2,30.08,NW,311,1.0,1.0,80,0.00,,,0.00,Wunderground v.1.15,2017-06-26 13:16:00,
2017-06-26 09:22:00,63.2,56.2,30.08,NW,311,0.0,0.0,78,0.00,,,0.00,Wunderground v.1.15,2017-06-26 13:22:00,
2017-06-26 09:27:00,63.8,56.4,30.08,NW,311,0.0,1.0,77,0.00,,,0.00,Wunderground v.1.15,2017-06-26 13:27:00,
2017-06-26 09:34:00,65.3,56.0,30.08,NW,311,0.0,2.0,72,0.00,,,0.00,Wunderground v.1.15,2017-06-26 13:34:00,
2017-06-26 09:40:00,65.9,55.8,30.08,NW,311,1.0,2.0,70,0.00,,,0.00,Wunderground v.1.15,2017-06-26 13:40:00,
2017-06-26 09:45:00,66.2,55.3,30.07,NW,311,1.0,4.0,68,0.00,,,0.00,Wunderground v.1.15,2017-06-26 13:45:00,
2017-06-26 09:51:00,67.2,57.5,30.07,NW,311,1.0,2.0,71,0.00,,,0.00,Wunderground v.1.15,2017-06-26 13:51:00,
2017-06-26 09:56:00,68.2,57.6,30.07,West,261,1.0,4.0,69,0.00,,,0.00,Wunderground v.1.15,2017-06-26 13:56:00,
2017-06-26 10:02:00,68.3,56.5,30.07,NNW,334,1.0,2.0,66,0.00,,,0.00,Wunderground v.1.15,2017-06-26 14:02:00,
2017-06-26 10:08:00,69.2,57.8,30.07,WNW,287,2.0,3.0,67,0.00,,,0.00,Wunderground v.1.15,2017-06-26 14:08:00,
2017-06-26 10:14:00,70.4,57.2,30.07,WNW,287,2.0,5.0,63,0.00,,,0.00,Wunderground v.1.15,2017-06-26 14:14:00,
2017-06-26 10:20:00,70.5,55.0,30.07,WNW,300,3.0,4.0,58,0.00,,,0.00,Wunderground v.1.15,2017-06-26 14:20:00,
2017-06-26 10:26:00,70.3,56.2,30.07,WNW,300,2.0,4.0,61,0.00,,,0.00,Wunderground v.1.15,2017-06-26 14:26:00,
2017-06-26 10:31:00,71.0,55.0,30.07,WNW,300,2.0,4.0,57,0.00,,,0.00,Wunderground v.1.15,2017-06-26 14:31:00,
2017-06-26 10:37:00,70.8,54.3,30.07,WNW,299,4.0,6.0,56,0.00,,,0.00,Wunderground v.1.15,2017-06-26 14:37:00,
2017-06-26 10:43:00,69.7,53.8,30.07,NW,304,4.0,7.0,57,0.00,,,0.00,Wunderground v.1.15,2017-06-26 14:43:00,
2017-06-26 10:48:00,69.5,53.1,30.07,WNW,300,5.0,8.0,56,0.00,,,0.00,Wunderground v.1.15,2017-06-26 14:48:00,
2017-06-26 10:54:00,69.7,53.3,30.07,ENE,65,4.0,10.0,56,0.00,,,0.00,Wunderground v.1.15,2017-06-26 14:54:00,
2017-06-26 10:59:00,69.3,51.9,30.07,NNW,340,3.0,10.0,54,0.00,,,0.00,Wunderground v.1.15,2017-06-26 14:59:00,
2017-06-26 11:05:00,69.1,53.2,30.07,WNW,284,3.0,4.0,57,0.00,,,0.00,Wunderground v.1.15,2017-06-26 15:05:00,
2017-06-26 11:11:00,69.6,53.7,30.07,WNW,289,4.0,4.0,57,0.00,,,0.00,Wunderground v.1.15,2017-06-26 15:11:00,
2017-06-26 11:16:00,70.4,53.0,30.07,West,277,5.0,9.0,54,0.00,,,0.00,Wunderground v.1.15,2017-06-26 15:16:00,
2017-06-26 11:22:00,70.7,52.7,30.07,NNW,344,4.0,7.0,53,0.00,,,0.00,Wunderground v.1.15,2017-06-26 15:22:00,
2017-06-26 11:28:00,70.1,51.7,30.07,West,280,4.0,7.0,52,0.00,,,0.00,Wunderground v.1.15,2017-06-26 15:28:00,
2017-06-26 11:33:00,69.7,52.3,30.07,WNW,300,4.0,5.0,54,0.00,,,0.00,Wunderground v.1.15,2017-06-26 15:33:00,
2017-06-26 11:39:00,70.6,53.1,30.07,WNW,296,5.0,8.0,54,0.00,,,0.00,Wunderground v.1.15,2017-06-26 15:39:00,
2017-06-26 11:44:00,70.8,54.3,30.06,West,260,4.0,5.0,56,0.00,,,0.00,Wunderground v.1.15,2017-06-26 15:44:00,
2017-06-26 11:50:00,72.2,55.1,30.06,NW,315,4.0,5.0,55,0.00,,,0.00,Wunderground v.1.15,2017-06-26 15:50:00,
2017-06-26 11:56:00,72.5,57.4,30.06,NW,313,4.0,5.0,59,0.00,,,0.00,Wunderground v.1.15,2017-06-26 15:56:00,
2017-06-26 12:01:00,72.9,53.7,30.06,WNW,284,3.0,6.0,51,0.00,,,0.00,Wunderground v.1.15,2017-06-26 16:01:00,
2017-06-26 12:07:00,72.7,56.6,30.06,WSW,248,4.0,7.0,57,0.00,,,0.00,Wunderground v.1.15,2017-06-26 16:07:00,
2017-06-26 12:12:00,72.6,55.5,30.06,NW,322,4.0,6.0,55,0.00,,,0.00,Wunderground v.1.15,2017-06-26 16:12:00,
2017-06-26 12:18:00,72.6,56.0,30.06,SSW,206,6.0,7.0,56,0.00,,,0.00,Wunderground v.1.15,2017-06-26 16:18:00,
2017-06-26 12:23:00,72.9,55.3,30.06,WNW,290,5.0,6.0,54,0.00,,,0.00,Wunderground v.1.15,2017-06-26 16:23:00,
2017-06-26 12:29:00,73.2,55.0,30.06,West,276,4.0,6.0,53,0.00,,,0.00,Wunderground v.1.15,2017-06-26 16:29:00,
2017-06-26 12:35:00,72.2,53.6,30.06,West,281,4.0,7.0,52,0.00,,,0.00,Wunderground v.1.15,2017-06-26 16:35:00,
2017-06-26 12:40:00,71.7,54.7,30.06,West,264,4.0,6.0,55,0.00,,,0.00,Wunderground v.1.15,2017-06-26 16:40:00,
2017-06-26 12:46:00,71.7,52.6,30.06,WNW,292,4.0,6.0,51,0.00,,,0.00,Wunderground v.1.15,2017-06-26 16:46:00,
2017-06-26 12:52:00,72.3,55.7,30.05,WNW,290,3.0,6.0,56,0.00,,,0.00,Wunderground v.1.15,2017-06-26 16:52:00,
2017-06-26 12:57:00,72.9,57.7,30.05,NW,317,2.0,6.0,59,0.00,,,0.00,Wunderground v.1.15,2017-06-26 16:57:00,
2017-06-26 13:03:00,73.3,55.1,30.05,WSW,254,4.0,6.0,53,0.00,,,0.00,Wunderground v.1.15,2017-06-26 17:03:00,
2017-06-26 13:08:00,72.7,53.5,30.05,West,279,3.0,6.0,51,0.00,,,0.00,Wunderground v.1.15,2017-06-26 17:08:00,
2017-06-26 13:14:00,72.0,53.9,30.05,West,279,2.0,3.0,53,0.00,,,0.00,Wunderground v.1.15,2017-06-26 17:14:00,
2017-06-26 13:20:00,72.4,56.8,30.05,NW,306,3.0,5.0,58,0.00,,,0.00,Wunderground v.1.15,2017-06-26 17:20:00,
2017-06-26 13:25:00,72.5,55.9,30.05,West,271,4.0,6.0,56,0.00,,,0.00,Wunderground v.1.15,2017-06-26 17:25:00,
2017-06-26 13:31:00,72.1,54.0,30.05,West,274,2.0,2.0,53,0.00,,,0.00,Wunderground v.1.15,2017-06-26 17:31:00,
2017-06-26 13:36:00,71.7,55.7,30.05,West,274,1.0,5.0,57,0.00,,,0.00,Wunderground v.1.15,2017-06-26 17:36:00,
2017-06-26 13:42:00,71.6,55.1,30.05,West,276,3.0,7.0,56,0.00,,,0.00,Wunderground v.1.15,2017-06-26 17:42:00,
2017-06-26 13:53:00,71.8,52.7,30.04,West,264,4.0,6.0,51,0.00,,,0.00,Wunderground v.1.15,2017-06-26 17:53:00,
2017-06-26 13:59:00,71.3,53.3,30.04,West,270,3.0,7.0,53,0.00,,,0.00,Wunderground v.1.15,2017-06-26 17:59:00,
2017-06-26 14:05:00,70.9,53.4,30.04,West,272,5.0,8.0,54,0.00,,,0.00,Wunderground v.1.15,2017-06-26 18:05:00,
2017-06-26 14:10:00,71.6,54.6,30.04,NNW,333,4.0,4.0,55,0.00,,,0.00,Wunderground v.1.15,2017-06-26 18:10:00,
2017-06-26 14:16:00,71.8,53.7,30.04,WNW,303,3.0,8.0,53,0.00,,,0.00,Wunderground v.1.15,2017-06-26 18:16:00,
2017-06-26 14:21:00,71.7,53.1,30.03,WNW,303,3.0,4.0,52,0.00,,,0.00,Wunderground v.1.15,2017-06-26 18:21:00,
2017-06-26 14:27:00,72.2,56.6,30.03,WNW,299,3.0,5.0,58,0.00,,,0.00,Wunderground v.1.15,2017-06-26 18:27:00,
2017-06-26 14:33:00,73.4,55.7,30.03,West,271,4.0,8.0,54,0.00,,,0.00,Wunderground v.1.15,2017-06-26 18:33:00,
2017-06-26 14:38:00,74.0,55.8,30.03,North,5,4.0,8.0,53,0.00,,,0.00,Wunderground v.1.15,2017-06-26 18:38:00,
2017-06-26 14:44:00,74.4,54.5,30.03,NW,305,3.0,6.0,50,0.00,,,0.00,Wunderground v.1.15,2017-06-26 18:44:00,
2017-06-26 14:50:00,74.0,52.5,30.03,SSW,201,3.0,3.0,47,0.00,,,0.00,Wunderground v.1.15,2017-06-26 18:50:00,
2017-06-26 14:56:00,73.4,52.5,30.03,SSW,198,3.0,4.0,48,0.00,,,0.00,Wunderground v.1.15,2017-06-26 18:56:00,
2017-06-26 15:01:00,73.4,54.7,30.03,WNW,286,4.0,8.0,52,0.00,,,0.00,Wunderground v.1.15,2017-06-26 19:01:00,
2017-06-26 15:07:00,74.1,54.3,30.02,West,278,4.0,8.0,50,0.00,,,0.00,Wunderground v.1.15,2017-06-26 19:07:00,
2017-06-26 15:13:00,73.5,54.8,30.02,WNW,286,4.0,7.0,52,0.00,,,0.00,Wunderground v.1.15,2017-06-26 19:13:00,
2017-06-26 15:19:00,73.9,55.7,30.02,West,261,5.0,7.0,53,0.00,,,0.00,Wunderground v.1.15,2017-06-26 19:19:00,
2017-06-26 15:24:00,74.2,54.9,30.02,WNW,288,4.0,7.0,51,0.00,,,0.00,Wunderground v.1.15,2017-06-26 19:24:00,
2017-06-26 15:30:00,74.5,53.5,30.01,NW,319,4.0,4.0,48,0.00,,,0.00,Wunderground v.1.15,2017-06-26 19:30:00,
2017-06-26 15:35:00,74.3,55.5,30.02,WNW,299,3.0,4.0,52,0.00,,,0.00,Wunderground v.1.15,2017-06-26 19:35:00,
2017-06-26 15:41:00,73.9,56.7,30.02,WNW,300,3.0,3.0,55,0.00,,,0.00,Wunderground v.1.15,2017-06-26 19:41:00,
2017-06-26 15:47:00,73.6,54.9,30.02,WNW,284,4.0,6.0,52,0.00,,,0.00,Wunderground v.1.15,2017-06-26 19:47:00,
2017-06-26 15:52:00,73.3,55.1,30.01,WNW,288,4.0,4.0,53,0.00,,,0.00,Wunderground v.1.15,2017-06-26 19:52:00,
2017-06-26 15:58:00,73.3,55.6,30.01,WNW,285,3.0,7.0,54,0.00,,,0.00,Wunderground v.1.15,2017-06-26 19:58:00,
2017-06-26 16:03:00,73.7,56.0,30.01,WNW,299,4.0,4.0,54,0.00,,,0.00,Wunderground v.1.15,2017-06-26 20:03:00,
2017-06-26 16:09:00,74.1,56.9,30.00,WNW,290,4.0,6.0,55,0.00,,,0.00,Wunderground v.1.15,2017-06-26 20:09:00,
2017-06-26 16:14:00,74.0,54.7,30.00,WNW,289,4.0,4.0,51,0.00,,,0.00,Wunderground v.1.15,2017-06-26 20:14:00,
2017-06-26 16:20:00,73.7,55.0,30.00,WNW,300,5.0,5.0,52,0.00,,,0.00,Wunderground v.1.15,2017-06-26 20:20:00,
2017-06-26 16:26:00,73.5,55.3,30.00,West,271,6.0,9.0,53,0.00,,,0.00,Wunderground v.1.15,2017-06-26 20:26:00,
2017-06-26 16:32:00,74.0,55.8,30.00,NW,315,5.0,7.0,53,0.00,,,0.00,Wunderground v.1.15,2017-06-26 20:32:00,
2017-06-26 16:37:00,74.3,57.1,30.00,WNW,302,4.0,7.0,55,0.00,,,0.00,Wunderground v.1.15,2017-06-26 20:37:00,
2017-06-26 16:43:00,74.6,55.8,30.00,West,269,5.0,8.0,52,0.00,,,0.00,Wunderground v.1.15,2017-06-26 20:43:00,
2017-06-26 16:49:00,74.0,53.6,30.00,West,275,6.0,11.0,49,0.00,,,0.00,Wunderground v.1.15,2017-06-26 20:49:00,
2017-06-26 16:54:00,73.2,54.5,30.00,WNW,298,6.0,7.0,52,0.00,,,0.00,Wunderground v.1.15,2017-06-26 20:54:00,
2017-06-26 17:00:00,73.5,54.8,29.99,West,267,4.0,4.0,52,0.00,,,0.00,Wunderground v.1.15,2017-06-26 21:00:00,
2017-06-26 17:06:00,74.2,56.0,29.99,WNW,288,3.0,6.0,53,0.00,,,0.00,Wunderground v.1.15,2017-06-26 21:06:00,
2017-06-26 17:11:00,74.6,54.7,29.99,West,281,4.0,5.0,50,0.00,,,0.00,Wunderground v.1.15,2017-06-26 21:11:00,